| time (UTC) | temp F | wind direction | speed MPH | gust MPH | rain 1hr in | rain 24hr in | rain mn in | humidity % | barometer mb |
| 20260507090510 | 60 | 21 | 1.0 | 3.0 | 0.00 | 0.00 | 0.00 | 86 | 1016.3 |
| 20260507090506 | 60 | 325 | 2.0 | 5.0 | 0.00 | 0.00 | 0.00 | 86 | 1015.7 |
| 20260507090024 | 60 | 352 | 1.0 | 3.0 | 0.00 | 0.00 | 0.00 | 86 | 1016.2 |
| 20260507090004 | 60 | 333 | 1.0 | 5.0 | 0.00 | 0.00 | 0.00 | 86 | 1015.7 |
| 20260507085508 | 60 | 336 | 1.0 | 5.0 | 0.00 | 0.00 | 0.00 | 85 | 1016.5 |
| 20260507085503 | 60 | 327 | 2.0 | 9.0 | 0.00 | 0.00 | 0.00 | 85 | 1015.9 |
| 20260507085005 | 60 | 275 | 0.0 | 5.0 | 0.00 | 0.00 | 0.00 | 86 | 1016.6 |
| 20260507085002 | 60 | 318 | 0.0 | 9.0 | 0.00 | 0.00 | 0.00 | 86 | 1016.0 |
| 20260507084543 | 60 | 360 | 2.0 | 5.0 | 0.00 | 0.00 | 0.00 | 85 | 1016.3 |
| 20260507084503 | 60 | 360 | 4.0 | 9.0 | 0.00 | 0.00 | 0.00 | 85 | 1015.8 |
| 20260507084010 | 60 | 232 | 1.0 | 5.0 | 0.00 | 0.00 | 0.00 | 85 | 1016.4 |
| 20260507084003 | 60 | 330 | 2.0 | 5.0 | 0.00 | 0.00 | 0.00 | 85 | 1015.8 |
| 20260507083508 | 60 | 352 | 1.0 | 7.0 | 0.00 | 0.00 | 0.00 | 85 | 1016.3 |
| 20260507083503 | 60 | 324 | 2.0 | 7.0 | 0.00 | 0.00 | 0.00 | 85 | 1015.6 |
| 20260507083025 | 60 | 360 | 2.0 | 7.0 | 0.00 | 0.00 | 0.00 | 85 | 1016.1 |
| 20260507083002 | 60 | 327 | 2.0 | 7.0 | 0.00 | 0.00 | 0.00 | 85 | 1015.5 |
| 20260507082509 | 60 | 315 | 0.0 | 8.0 | 0.00 | 0.00 | 0.00 | 85 | 1016.0 |
| 20260507082504 | 60 | 333 | 1.0 | 9.0 | 0.00 | 0.00 | 0.00 | 85 | 1015.3 |
| 20260507082011 | 60 | 317 | 2.0 | 8.0 | 0.00 | 0.00 | 0.00 | 84 | 1016.0 |
| 20260507082005 | 60 | 342 | 2.0 | 9.0 | 0.00 | 0.00 | 0.00 | 84 | 1015.4 |
| 20260507081515 | 60 | 331 | 1.0 | 6.0 | 0.00 | 0.00 | 0.00 | 84 | 1015.4 |
| 20260507081012 | 60 | 316 | 1.0 | 6.0 | 0.00 | 0.00 | 0.00 | 84 | 1016.1 |
| 20260507081003 | 60 | 348 | 2.0 | 6.0 | 0.00 | 0.00 | 0.00 | 84 | 1015.5 |
| 20260507080505 | 60 | 81 | 1.0 | 6.0 | 0.00 | 0.00 | 0.00 | 84 | 1015.9 |
| 20260507080503 | 60 | 61 | 1.0 | 6.0 | 0.00 | 0.00 | 0.00 | 84 | 1015.2 |
| 20260507080017 | 60 | 287 | 1.0 | 6.0 | 0.00 | 0.00 | 0.00 | 84 | 1016.1 |
| 20260507080011 | 60 | 337 | 1.0 | 5.0 | 0.00 | 0.00 | 0.00 | 84 | 1015.4 |
| 20260507075508 | 60 | 9 | 1.0 | 5.0 | 0.00 | 0.00 | 0.00 | 84 | 1015.9 |
| 20260507075502 | 60 | 325 | 2.0 | 9.0 | 0.00 | 0.00 | 0.00 | 84 | 1015.2 |
| 20260507075013 | 60 | 179 | 2.0 | 9.0 | 0.00 | 0.00 | 0.00 | 84 | 1015.8 |
| 20260507075002 | 60 | 346 | 2.0 | 9.0 | 0.00 | 0.00 | 0.00 | 84 | 1015.2 |
| 20260507074524 | 60 | 335 | 3.0 | 10.0 | 0.00 | 0.00 | 0.00 | 83 | 1015.8 |
| 20260507074504 | 60 | 336 | 4.0 | 10.0 | 0.00 | 0.00 | 0.00 | 83 | 1015.2 |
| 20260507074007 | 60 | 86 | 1.0 | 10.0 | 0.00 | 0.00 | 0.00 | 83 | 1015.4 |
| 20260507074004 | 60 | 342 | 1.0 | 10.0 | 0.00 | 0.00 | 0.00 | 83 | 1016.1 |
| 20260507073508 | 60 | 352 | 1.0 | 10.0 | 0.00 | 0.00 | 0.00 | 84 | 1016.0 |
| 20260507073502 | 60 | 325 | 3.0 | 10.0 | 0.00 | 0.00 | 0.00 | 84 | 1015.4 |
| 20260507073027 | 60 | 42 | 3.0 | 10.0 | 0.00 | 0.00 | 0.00 | 83 | 1016.2 |
| 20260507073008 | 60 | 319 | 3.0 | 10.0 | 0.00 | 0.00 | 0.00 | 83 | 1015.6 |
| 20260507072512 | 60 | 23 | 1.0 | 5.0 | 0.00 | 0.00 | 0.00 | 83 | 1016.4 |
| 20260507072503 | 60 | 322 | 3.0 | 6.0 | 0.00 | 0.00 | 0.00 | 83 | 1015.8 |
| 20260507072006 | 60 | 97 | 1.0 | 5.0 | 0.00 | 0.00 | 0.00 | 84 | 1016.5 |
| 20260507072003 | 60 | 109 | 1.0 | 5.0 | 0.00 | 0.00 | 0.00 | 84 | 1015.8 |
| 20260507071524 | 60 | 320 | 2.0 | 8.0 | 0.00 | 0.00 | 0.00 | 83 | 1016.3 |
| 20260507071511 | 60 | 324 | 1.0 | 9.0 | 0.00 | 0.00 | 0.00 | 83 | 1015.5 |
| 20260507071010 | 60 | 30 | 1.0 | 8.0 | 0.00 | 0.00 | 0.00 | 84 | 1016.1 |
| 20260507071003 | 60 | 326 | 1.0 | 10.0 | 0.00 | 0.00 | 0.00 | 84 | 1015.3 |
| 20260507070504 | 60 | 342 | 2.0 | 7.0 | 0.00 | 0.00 | 0.00 | 84 | 1015.7 |
| 20260507070015 | 60 | 271 | 0.0 | 3.0 | 0.00 | 0.00 | 0.00 | 84 | 1016.3 |
| 20260507070009 | 60 | 348 | 2.0 | 5.0 | 0.00 | 0.00 | 0.00 | 84 | 1015.7 |
| 20260507065505 | 60 | 292 | 0.0 | 3.0 | 0.00 | 0.00 | 0.00 | 83 | 1015.8 |
| 20260507065502 | 60 | 17 | 1.0 | 3.0 | 0.00 | 0.00 | 0.00 | 83 | 1016.5 |
| 20260507065006 | 60 | 213 | 0.0 | 3.0 | 0.00 | 0.00 | 0.00 | 83 | 1015.1 |
| 20260507065003 | 60 | 33 | 0.0 | 3.0 | 0.00 | 0.00 | 0.00 | 83 | 1016.0 |
| 20260507064523 | 60 | 352 | 1.0 | 6.0 | 0.00 | 0.00 | 0.00 | 83 | 1015.2 |
| 20260507064506 | 60 | 33 | 0.0 | 5.0 | 0.00 | 0.00 | 0.00 | 83 | 1015.7 |
| 20260507064005 | 60 | 325 | 2.0 | 6.0 | 0.00 | 0.00 | 0.00 | 83 | 1014.9 |
| 20260507064003 | 60 | 352 | 2.0 | 5.0 | 0.00 | 0.00 | 0.00 | 83 | 1015.6 |
| 20260507063504 | 60 | 315 | 2.0 | 7.0 | 0.00 | 0.00 | 0.00 | 83 | 1015.4 |
| 20260507063006 | 60 | 300 | 2.0 | 7.0 | 0.00 | 0.00 | 0.00 | 83 | 1015.6 |
| 20260507063004 | 60 | 360 | 1.0 | 8.0 | 0.00 | 0.00 | 0.00 | 83 | 1016.3 |
| 20260507062504 | 61 | 329 | 2.0 | 9.0 | 0.00 | 0.00 | 0.00 | 82 | 1015.1 |
| 20260507062003 | 61 | 324 | 3.0 | 9.0 | 0.00 | 0.00 | 0.00 | 82 | 1015.3 |
| 20260507061510 | 61 | 324 | 3.0 | 9.0 | 0.00 | 0.00 | 0.00 | 82 | 1015.6 |
| 20260507061504 | 61 | 360 | 2.0 | 9.0 | 0.00 | 0.00 | 0.00 | 82 | 1016.3 |
| 20260507061005 | 61 | 5 | 2.0 | 9.0 | 0.00 | 0.00 | 0.00 | 82 | 1015.6 |
| 20260507061003 | 61 | 326 | 4.0 | 9.0 | 0.00 | 0.00 | 0.00 | 82 | 1014.8 |
| 20260507060503 | 61 | 22 | 0.0 | 5.0 | 0.00 | 0.00 | 0.00 | 82 | 1015.6 |
| 20260507060009 | 61 | 321 | 4.0 | 9.0 | 0.00 | 0.00 | 0.00 | 82 | 1015.4 |
| 20260507060003 | 61 | 315 | 2.0 | 5.0 | 0.00 | 0.00 | 0.00 | 82 | 1016.0 |
| 20260507055504 | 61 | 342 | 1.0 | 9.0 | 0.00 | 0.00 | 0.00 | 82 | 1015.3 |
| 20260507055007 | 61 | 311 | 3.0 | 9.0 | 0.00 | 0.00 | 0.00 | 82 | 1015.5 |
| 20260507055004 | 61 | 22 | 2.0 | 9.0 | 0.00 | 0.00 | 0.00 | 82 | 1016.2 |
| 20260507054505 | 61 | 327 | 3.0 | 6.0 | 0.00 | 0.00 | 0.00 | 82 | 1015.4 |
| 20260507054005 | 61 | 313 | 2.0 | 6.0 | 0.00 | 0.00 | 0.00 | 82 | 1015.4 |
| 20260507054003 | 61 | 313 | 1.0 | 7.0 | 0.00 | 0.00 | 0.00 | 82 | 1016.0 |
| 20260507053508 | 61 | 323 | 2.0 | 9.0 | 0.00 | 0.00 | 0.00 | 82 | 1015.6 |
| 20260507053503 | 61 | 331 | 2.0 | 9.0 | 0.00 | 0.00 | 0.00 | 82 | 1016.3 |
| 20260507053005 | 61 | 22 | 1.0 | 9.0 | 0.00 | 0.00 | 0.00 | 81 | 1016.2 |
| 20260507052507 | 61 | 319 | 1.0 | 10.0 | 0.00 | 0.00 | 0.00 | 82 | 1015.5 |
| 20260507052502 | 61 | 55 | 1.0 | 7.0 | 0.00 | 0.00 | 0.00 | 82 | 1016.2 |
| 20260507052004 | 61 | 322 | 1.0 | 11.0 | 0.00 | 0.00 | 0.00 | 82 | 1015.2 |
| 20260507051505 | 61 | 38 | 2.0 | 12.0 | 0.00 | 0.00 | 0.00 | 81 | 1015.8 |
| 20260507051006 | 61 | 42 | 1.0 | 12.0 | 0.00 | 0.00 | 0.00 | 81 | 1015.8 |
| 20260507051003 | 61 | 302 | 3.0 | 12.0 | 0.00 | 0.00 | 0.00 | 81 | 1015.3 |
| 20260507050504 | 61 | 17 | 2.0 | 8.0 | 0.00 | 0.00 | 0.00 | 81 | 1015.6 |
| 20260507050502 | 61 | 13 | 2.0 | 9.0 | 0.00 | 0.00 | 0.00 | 81 | 1016.2 |
| 20260507050013 | 61 | 5 | 2.0 | 9.0 | 0.00 | 0.00 | 0.00 | 81 | 1016.2 |
| 20260507045506 | 61 | 28 | 3.0 | 12.0 | 0.00 | 0.00 | 0.00 | 81 | 1016.0 |
| 20260507045503 | 61 | 338 | 3.0 | 12.0 | 0.00 | 0.00 | 0.00 | 81 | 1015.5 |
| 20260507045007 | 61 | 308 | 1.0 | 12.0 | 0.00 | 0.00 | 0.00 | 81 | 1015.6 |
| 20260507045004 | 61 | 13 | 1.0 | 12.0 | 0.00 | 0.00 | 0.00 | 81 | 1016.2 |
| 20260507044521 | 61 | 339 | 3.0 | 12.0 | 0.00 | 0.00 | 0.00 | 82 | 1015.3 |
| 20260507044504 | 61 | 61 | 2.0 | 12.0 | 0.00 | 0.00 | 0.00 | 82 | 1016.0 |
| 20260507044008 | 61 | 317 | 2.0 | 10.0 | 0.00 | 0.00 | 0.00 | 81 | 1015.2 |
| 20260507044003 | 61 | 352 | 2.0 | 12.0 | 0.00 | 0.00 | 0.00 | 81 | 1015.8 |
| 20260507043503 | 61 | 336 | 2.0 | 10.0 | 0.00 | 0.00 | 0.00 | 81 | 1015.4 |
| 20260507043014 | 61 | 317 | 3.0 | 10.0 | 0.00 | 0.00 | 0.00 | 81 | 1015.3 |
| 20260507043005 | 61 | 94 | 1.0 | 10.0 | 0.00 | 0.00 | 0.00 | 81 | 1015.9 |
| 20260507042509 | 61 | 313 | 3.0 | 10.0 | 0.00 | 0.00 | 0.00 | 81 | 1015.5 |
| 20260507042503 | 61 | 327 | 3.0 | 11.0 | 0.00 | 0.00 | 0.00 | 81 | 1016.1 |
| 20260507042003 | 61 | 34 | 4.0 | 11.0 | 0.00 | 0.00 | 0.00 | 81 | 1016.1 |
| 20260507041504 | 61 | 302 | 4.0 | 9.0 | 0.00 | 0.00 | 0.00 | 81 | 1015.4 |
| 20260507041004 | 61 | 321 | 3.0 | 9.0 | 0.00 | 0.00 | 0.00 | 82 | 1015.5 |
| 20260507040505 | 61 | 350 | 3.0 | 9.0 | 0.00 | 0.00 | 0.00 | 81 | 1015.4 |
| 20260507040007 | 61 | 51 | 3.0 | 7.0 | 0.00 | 0.00 | 0.00 | 81 | 1015.9 |
| 20260507035505 | 61 | 319 | 1.0 | 9.0 | 0.00 | 0.00 | 0.00 | 81 | 1015.3 |
| 20260507035502 | 61 | 14 | 1.0 | 8.0 | 0.00 | 0.00 | 0.00 | 81 | 1016.0 |
| 20260507035005 | 61 | 322 | 3.0 | 9.0 | 0.00 | 0.00 | 0.00 | 81 | 1015.2 |
| 20260507035003 | 61 | 38 | 2.0 | 8.0 | 0.00 | 0.00 | 0.00 | 81 | 1015.8 |
| 20260507034512 | 61 | 328 | 2.0 | 8.0 | 0.00 | 0.00 | 0.00 | 81 | 1015.2 |
| 20260507034507 | 61 | 316 | 1.0 | 8.0 | 0.00 | 0.00 | 0.00 | 81 | 1015.8 |
| 20260507034008 | 61 | 22 | 2.0 | 7.0 | 0.00 | 0.00 | 0.00 | 81 | 1016.0 |
| 20260507034004 | 61 | 329 | 2.0 | 6.0 | 0.00 | 0.00 | 0.00 | 81 | 1015.3 |
| 20260507033505 | 61 | 336 | 1.0 | 6.0 | 0.00 | 0.00 | 0.00 | 81 | 1015.3 |
| 20260507033503 | 61 | 344 | 2.0 | 7.0 | 0.00 | 0.00 | 0.00 | 81 | 1016.0 |
| 20260507033033 | 61 | 339 | 2.0 | 13.0 | 0.00 | 0.00 | 0.00 | 81 | 1015.3 |
| 20260507033004 | 61 | 344 | 2.0 | 13.0 | 0.00 | 0.00 | 0.00 | 81 | 1016.1 |
| 20260507032504 | 61 | 17 | 2.0 | 13.0 | 0.00 | 0.00 | 0.00 | 81 | 1016.2 |
| 20260507032010 | 61 | 317 | 1.0 | 10.0 | 0.00 | 0.00 | 0.00 | 81 | 1015.0 |
| 20260507032003 | 61 | 9 | 1.0 | 10.0 | 0.00 | 0.00 | 0.00 | 81 | 1015.9 |
| 20260507031521 | 61 | 18 | 2.0 | 11.0 | 0.00 | 0.00 | 0.00 | 81 | 1014.9 |
| 20260507031508 | 61 | 14 | 2.0 | 11.0 | 0.00 | 0.00 | 0.00 | 81 | 1015.8 |
| 20260507031004 | 61 | 5 | 3.0 | 11.0 | 0.00 | 0.00 | 0.00 | 81 | 1015.4 |
| 20260507030504 | 61 | 47 | 3.0 | 10.0 | 0.00 | 0.00 | 0.00 | 81 | 1015.2 |
| 20260507030006 | 61 | 40 | 3.0 | 10.0 | 0.00 | 0.00 | 0.00 | 81 | 1015.3 |
| 20260507025504 | 62 | 319 | 4.0 | 12.0 | 0.00 | 0.00 | 0.00 | 81 | 1014.1 |
| 20260507025008 | 62 | 337 | 3.0 | 12.0 | 0.00 | 0.00 | 0.00 | 81 | 1015.6 |
| 20260507025002 | 62 | 330 | 3.0 | 8.0 | 0.00 | 0.00 | 0.00 | 81 | 1014.8 |
| 20260507024510 | 62 | 327 | 2.0 | 8.0 | 0.00 | 0.00 | 0.00 | 81 | 1015.0 |
| 20260507024504 | 62 | 36 | 2.0 | 8.0 | 0.00 | 0.00 | 0.00 | 81 | 1015.9 |
| 20260507024007 | 62 | 330 | 1.0 | 9.0 | 0.00 | 0.00 | 0.00 | 80 | 1014.6 |
| 20260507024002 | 62 | 122 | 1.0 | 8.0 | 0.00 | 0.00 | 0.00 | 80 | 1015.5 |
| 20260507023506 | 62 | 330 | 4.0 | 9.0 | 0.00 | 0.00 | 0.00 | 80 | 1014.4 |
| 20260507023020 | 62 | 325 | 2.0 | 8.0 | 0.00 | 0.00 | 0.00 | 81 | 1014.1 |
| 20260507023005 | 62 | 15 | 2.0 | 8.0 | 0.00 | 0.00 | 0.00 | 81 | 1015.0 |
| 20260507022507 | 62 | 329 | 2.0 | 8.0 | 0.00 | 0.00 | 0.00 | 81 | 1014.2 |
| 20260507022505 | 62 | 5 | 1.0 | 8.0 | 0.00 | 0.00 | 0.00 | 81 | 1015.0 |
| 20260507022006 | 62 | 328 | 2.0 | 6.0 | 0.00 | 0.00 | 0.00 | 81 | 1014.5 |
| 20260507021515 | 62 | 36 | 1.0 | 7.0 | 0.00 | 0.00 | 0.00 | 81 | 1015.4 |
| 20260507021508 | 62 | 288 | 2.0 | 8.0 | 0.00 | 0.00 | 0.00 | 81 | 1014.4 |
| 20260507021010 | 62 | 320 | 2.0 | 8.0 | 0.00 | 0.00 | 0.00 | 80 | 1014.4 |
| 20260507021004 | 62 | 34 | 2.0 | 7.0 | 0.00 | 0.00 | 0.00 | 80 | 1015.3 |
| 20260507020512 | 62 | 315 | 2.0 | 8.0 | 0.00 | 0.00 | 0.00 | 80 | 1014.3 |
| 20260507020504 | 62 | 10 | 2.0 | 6.0 | 0.00 | 0.00 | 0.00 | 80 | 1015.1 |
| 20260507020026 | 62 | 319 | 1.0 | 8.0 | 0.00 | 0.00 | 0.00 | 80 | 1014.1 |
| 20260507020005 | 62 | 19 | 2.0 | 8.0 | 0.00 | 0.00 | 0.00 | 80 | 1014.9 |
| 20260507015506 | 62 | 322 | 2.0 | 8.0 | 0.00 | 0.00 | 0.00 | 80 | 1013.7 |
| 20260507015005 | 62 | 340 | 2.0 | 9.0 | 0.00 | 0.00 | 0.00 | 80 | 1013.8 |
| 20260507014513 | 62 | 323 | 3.0 | 9.0 | 0.00 | 0.00 | 0.00 | 80 | 1013.9 |
| 20260507014508 | 62 | 348 | 2.0 | 6.0 | 0.00 | 0.00 | 0.00 | 80 | 1014.6 |
| 20260507014005 | 62 | 360 | 1.0 | 5.0 | 0.00 | 0.00 | 0.00 | 81 | 1014.5 |
| 20260507014003 | 62 | 333 | 2.0 | 5.0 | 0.00 | 0.00 | 0.00 | 81 | 1013.8 |
| 20260507013503 | 62 | 31 | 1.0 | 6.0 | 0.00 | 0.00 | 0.00 | 81 | 1014.3 |
| 20260507013013 | 62 | 332 | 2.0 | 8.0 | 0.00 | 0.00 | 0.00 | 80 | 1013.5 |
| 20260507013009 | 62 | 41 | 0.0 | 6.0 | 0.00 | 0.00 | 0.00 | 80 | 1014.1 |
| 20260507012508 | 62 | 338 | 2.0 | 8.0 | 0.00 | 0.00 | 0.00 | 80 | 1013.6 |
| 20260507012505 | 62 | 330 | 0.0 | 4.0 | 0.00 | 0.00 | 0.00 | 80 | 1014.3 |
| 20260507012003 | 62 | 342 | 2.0 | 8.0 | 0.00 | 0.00 | 0.00 | 80 | 1014.1 |
| 20260507011517 | 62 | 346 | 1.0 | 9.0 | 0.00 | 0.00 | 0.00 | 81 | 1013.3 |
| 20260507011514 | 62 | 46 | 2.0 | 8.0 | 0.00 | 0.00 | 0.00 | 81 | 1013.9 |
| 20260507011007 | 62 | 336 | 2.0 | 9.0 | 0.00 | 0.00 | 0.00 | 81 | 1013.2 |
| 20260507011003 | 62 | 5 | 1.0 | 6.0 | 0.00 | 0.00 | 0.00 | 81 | 1014.0 |
| 20260507010506 | 62 | 14 | 1.0 | 8.0 | 0.00 | 0.00 | 0.00 | 81 | 1013.8 |
| 20260507010503 | 62 | 330 | 1.0 | 8.0 | 0.00 | 0.00 | 0.00 | 81 | 1013.1 |
| 20260507010025 | 62 | 338 | 1.0 | 8.0 | 0.00 | 0.00 | 0.00 | 80 | 1013.0 |
| 20260507010018 | 62 | 300 | 1.0 | 8.0 | 0.00 | 0.00 | 0.00 | 80 | 1013.8 |
| 20260507005506 | 62 | 332 | 2.0 | 6.0 | 0.00 | 0.00 | 0.00 | 80 | 1012.8 |
| 20260507005503 | 62 | 336 | 1.0 | 7.0 | 0.00 | 0.00 | 0.00 | 80 | 1013.6 |
| 20260507005010 | 62 | 332 | 2.0 | 7.0 | 0.00 | 0.00 | 0.00 | 80 | 1012.9 |
| 20260507005007 | 62 | 10 | 1.0 | 7.0 | 0.00 | 0.00 | 0.00 | 80 | 1013.7 |
| 20260507004515 | 62 | 334 | 1.0 | 10.0 | 0.00 | 0.00 | 0.00 | 81 | 1013.1 |
| 20260507004505 | 62 | 352 | 1.0 | 10.0 | 0.00 | 0.00 | 0.00 | 81 | 1013.8 |
| 20260507004004 | 62 | 14 | 2.0 | 10.0 | 0.00 | 0.00 | 0.00 | 80 | 1013.6 |
| 20260507003504 | 62 | 314 | 1.0 | 6.0 | 0.00 | 0.00 | 0.00 | 80 | 1013.5 |
| 20260507003007 | 62 | 17 | 1.0 | 6.0 | 0.00 | 0.00 | 0.00 | 79 | 1013.5 |
| 20260507002504 | 62 | 257 | 1.0 | 5.0 | 0.00 | 0.00 | 0.00 | 80 | 1013.5 |
| 20260507002010 | 62 | 333 | 2.0 | 8.0 | 0.00 | 0.00 | 0.00 | 79 | 1012.6 |
| 20260507002003 | 62 | 321 | 2.0 | 8.0 | 0.00 | 0.00 | 0.00 | 79 | 1013.4 |
| 20260507001518 | 62 | 327 | 1.0 | 13.0 | 0.00 | 0.00 | 0.00 | 80 | 1012.5 |
| 20260507001505 | 62 | 335 | 2.0 | 13.0 | 0.00 | 0.00 | 0.00 | 80 | 1013.3 |
| 20260507001004 | 63 | 341 | 2.0 | 13.0 | 0.00 | 0.00 | 0.00 | 79 | 1013.5 |
| 20260507000508 | 63 | 345 | 1.0 | 10.0 | 0.00 | 0.00 | 0.00 | 79 | 1013.5 |
| 20260507000506 | 63 | 346 | 2.0 | 8.0 | 0.00 | 0.00 | 0.00 | 79 | 1012.7 |
| 20260507000007 | 63 | 338 | 2.0 | 12.0 | 0.00 | 0.00 | 0.00 | 79 | 1012.7 |
| 20260506235505 | 63 | 329 | 3.0 | 10.0 | 0.00 | 0.00 | 0.00 | 78 | 1012.7 |
| 20260506235007 | 63 | 341 | 2.0 | 6.0 | 0.00 | 0.00 | 0.00 | 78 | 1013.2 |
| 20260506235003 | 63 | 338 | 2.0 | 6.0 | 0.00 | 0.00 | 0.00 | 78 | 1012.4 |
| 20260506234509 | 63 | 338 | 2.0 | 9.0 | 0.00 | 0.00 | 0.00 | 79 | 1012.6 |
| 20260506234004 | 63 | 352 | 2.0 | 9.0 | 0.00 | 0.00 | 0.00 | 78 | 1013.4 |
| 20260506234001 | 63 | 332 | 3.0 | 9.0 | 0.00 | 0.00 | 0.00 | 78 | 1012.5 |
| 20260506233505 | 63 | 344 | 2.0 | 6.0 | 0.00 | 0.00 | 0.00 | 78 | 1012.4 |
| 20260506233012 | 63 | 323 | 3.0 | 9.0 | 0.00 | 0.00 | 0.00 | 78 | 1012.5 |
| 20260506233010 | 63 | 54 | 2.0 | 9.0 | 0.00 | 0.00 | 0.00 | 78 | 1013.3 |
| 20260506232503 | 63 | 27 | 1.0 | 11.0 | 0.00 | 0.00 | 0.00 | 78 | 1013.3 |
| 20260506232005 | 63 | 333 | 4.0 | 12.0 | 0.00 | 0.00 | 0.00 | 77 | 1012.4 |
| 20260506232003 | 63 | 338 | 4.0 | 12.0 | 0.00 | 0.00 | 0.00 | 77 | 1013.3 |
| 20260506231517 | 64 | 227 | 3.0 | 12.0 | 0.00 | 0.00 | 0.00 | 76 | 1012.4 |
| 20260506231508 | 64 | 18 | 3.0 | 12.0 | 0.00 | 0.00 | 0.00 | 76 | 1013.2 |
| 20260506231007 | 64 | 349 | 1.0 | 9.0 | 0.00 | 0.00 | 0.00 | 77 | 1012.2 |
| 20260506231004 | 64 | 352 | 2.0 | 10.0 | 0.00 | 0.00 | 0.00 | 77 | 1013.0 |
| 20260506230504 | 65 | 352 | 2.0 | 9.0 | 0.00 | 0.00 | 0.00 | 76 | 1013.0 |
| 20260506230502 | 65 | 337 | 4.0 | 9.0 | 0.00 | 0.00 | 0.00 | 76 | 1012.3 |
| 20260506230014 | 65 | 290 | 2.0 | 10.0 | 0.00 | 0.00 | 0.00 | 78 | 1012.3 |
| 20260506230012 | 65 | 360 | 2.0 | 10.0 | 0.00 | 0.00 | 0.00 | 78 | 1012.9 |
| 20260506225508 | 65 | 336 | 2.0 | 10.0 | 0.00 | 0.00 | 0.00 | 76 | 1012.9 |
| 20260506225004 | 65 | 329 | 3.0 | 9.0 | 0.00 | 0.00 | 0.00 | 75 | 1012.7 |
| 20260506225002 | 65 | 323 | 2.0 | 9.0 | 0.00 | 0.00 | 0.00 | 75 | 1012.1 |
| 20260506224507 | 66 | 313 | 2.0 | 9.0 | 0.00 | 0.00 | 0.00 | 76 | 1012.1 |
| 20260506224006 | 66 | 331 | 2.0 | 9.0 | 0.00 | 0.00 | 0.00 | 74 | 1012.8 |
| 20260506224004 | 66 | 320 | 1.0 | 10.0 | 0.00 | 0.00 | 0.00 | 74 | 1012.2 |
| 20260506223506 | 66 | 348 | 3.0 | 8.0 | 0.00 | 0.00 | 0.00 | 75 | 1012.8 |
| 20260506223501 | 66 | 304 | 3.0 | 11.0 | 0.00 | 0.00 | 0.00 | 75 | 1012.2 |
| 20260506223015 | 66 | 336 | 2.0 | 10.0 | 0.00 | 0.00 | 0.00 | 75 | 1012.6 |
| 20260506223006 | 66 | 345 | 2.0 | 10.0 | 0.00 | 0.00 | 0.00 | 75 | 1012.1 |
| 20260506222506 | 67 | 336 | 4.0 | 10.0 | 0.00 | 0.00 | 0.00 | 74 | 1012.1 |
| 20260506222008 | 67 | 91 | 2.0 | 9.0 | 0.00 | 0.00 | 0.00 | 75 | 1012.7 |
| 20260506221510 | 66 | 360 | 3.0 | 11.0 | 0.00 | 0.00 | 0.00 | 73 | 1012.5 |
| 20260506221004 | 67 | 47 | 5.0 | 0.0 | 0.00 | 0.00 | 0.00 | 73 | 1012.3 |
| 20260506221002 | 67 | 327 | 3.0 | 11.0 | 0.00 | 0.00 | 0.00 | 73 | 1011.9 |
| 20260506220506 | 67 | 334 | 2.0 | 10.0 | 0.00 | 0.00 | 0.00 | 74 | 1011.9 |
| 20260506220504 | 67 | 306 | 1.0 | 8.0 | 0.00 | 0.00 | 0.00 | 74 | 1012.4 |
| 20260506220031 | 69 | 320 | 4.0 | 15.0 | 0.00 | 0.00 | 0.00 | 71 | 1011.9 |
| 20260506220029 | 69 | 59 | 3.0 | 15.0 | 0.00 | 0.00 | 0.00 | 71 | 1012.4 |
| 20260506215506 | 69 | 38 | 2.0 | 15.0 | 0.00 | 0.00 | 0.00 | 71 | 1012.4 |
| 20260506215503 | 69 | 331 | 1.0 | 15.0 | 0.00 | 0.00 | 0.00 | 71 | 1011.8 |
| 20260506215012 | 69 | 240 | 2.0 | 12.0 | 0.00 | 0.00 | 0.00 | 72 | 1012.4 |
| 20260506215006 | 69 | 331 | 3.0 | 12.0 | 0.00 | 0.00 | 0.00 | 72 | 1011.9 |
| 20260506214524 | 69 | 311 | 3.0 | 16.0 | 0.00 | 0.00 | 0.00 | 70 | 1011.7 |
| 20260506214522 | 69 | 22 | 3.0 | 16.0 | 0.00 | 0.00 | 0.00 | 70 | 1012.3 |
| 20260506214008 | 69 | 352 | 6.0 | 16.0 | 0.00 | 0.00 | 0.00 | 71 | 1012.3 |
| 20260506214006 | 69 | 296 | 7.0 | 16.0 | 0.00 | 0.00 | 0.00 | 71 | 1011.7 |
| 20260506213508 | 69 | 32 | 4.0 | 12.0 | 0.00 | 0.00 | 0.00 | 72 | 1012.3 |
| 20260506213503 | 69 | 346 | 5.0 | 14.0 | 0.00 | 0.00 | 0.00 | 72 | 1011.8 |
| 20260506213030 | 69 | 330 | 3.0 | 12.0 | 0.00 | 0.00 | 0.00 | 71 | 1012.5 |
| 20260506213006 | 69 | 308 | 4.0 | 12.0 | 0.00 | 0.00 | 0.00 | 71 | 1012.0 |
| 20260506212508 | 69 | 5 | 4.0 | 11.0 | 0.00 | 0.00 | 0.00 | 73 | 1012.7 |
| 20260506212503 | 69 | 343 | 4.0 | 11.0 | 0.00 | 0.00 | 0.00 | 73 | 1012.2 |
| 20260506212005 | 70 | 337 | 1.0 | 10.0 | 0.00 | 0.00 | 0.00 | 74 | 1012.8 |
| 20260506212003 | 70 | 329 | 2.0 | 12.0 | 0.00 | 0.00 | 0.00 | 74 | 1012.2 |
| 20260506211513 | 69 | 360 | 1.0 | 10.0 | 0.00 | 0.00 | 0.00 | 74 | 1012.7 |
| 20260506211510 | 69 | 322 | 3.0 | 12.0 | 0.00 | 0.00 | 0.00 | 74 | 1012.2 |
| 20260506211006 | 70 | 25 | 3.0 | 9.0 | 0.00 | 0.00 | 0.00 | 72 | 1012.7 |
| 20260506211003 | 70 | 302 | 4.0 | 10.0 | 0.00 | 0.00 | 0.00 | 72 | 1012.1 |
| 20260506210506 | 70 | 37 | 2.0 | 10.0 | 0.00 | 0.00 | 0.00 | 72 | 1012.0 |
| 20260506210015 | 70 | 329 | 3.0 | 12.0 | 0.00 | 0.00 | 0.00 | 75 | 1012.1 |
| 20260506210012 | 70 | 239 | 2.0 | 12.0 | 0.00 | 0.00 | 0.00 | 75 | 1012.7 |
| 20260506205508 | 69 | 313 | 2.0 | 12.0 | 0.00 | 0.00 | 0.00 | 74 | 1012.2 |
| 20260506205011 | 70 | 318 | 2.0 | 13.0 | 0.00 | 0.00 | 0.00 | 74 | 1012.1 |
| 20260506205008 | 70 | 308 | 2.0 | 13.0 | 0.00 | 0.00 | 0.00 | 74 | 1012.9 |
| 20260506204536 | 70 | 30 | 4.0 | 10.0 | 0.00 | 0.00 | 0.00 | 74 | 1013.0 |
| 20260506204510 | 70 | 11 | 3.0 | 10.0 | 0.00 | 0.00 | 0.00 | 74 | 1012.1 |
| 20260506204010 | 70 | 64 | 4.0 | 12.0 | 0.00 | 0.00 | 0.00 | 74 | 1012.9 |
| 20260506204006 | 70 | 331 | 3.0 | 12.0 | 0.00 | 0.00 | 0.00 | 74 | 1012.1 |
| 20260506203511 | 70 | 323 | 3.0 | 12.0 | 0.00 | 0.00 | 0.00 | 74 | 1012.7 |
| 20260506203505 | 70 | 339 | 3.0 | 12.0 | 0.00 | 0.00 | 0.00 | 74 | 1012.0 |
| 20260506203029 | 71 | 34 | 2.0 | 10.0 | 0.00 | 0.00 | 0.00 | 75 | 1012.7 |
| 20260506202504 | 72 | 80 | 3.0 | 10.0 | 0.00 | 0.00 | 0.00 | 75 | 1012.4 |
| 20260506202007 | 72 | 38 | 3.0 | 10.0 | 0.00 | 0.00 | 0.00 | 74 | 1012.2 |
| 20260506202005 | 72 | 352 | 4.0 | 10.0 | 0.00 | 0.00 | 0.00 | 74 | 1011.8 |
| 20260506201526 | 72 | 26 | 3.0 | 14.0 | 0.00 | 0.00 | 0.00 | 75 | 1012.2 |
| 20260506201512 | 72 | 317 | 2.0 | 14.0 | 0.00 | 0.00 | 0.00 | 75 | 1011.8 |
| 20260506201005 | 72 | 317 | 1.0 | 14.0 | 0.00 | 0.00 | 0.00 | 76 | 1012.2 |
| 20260506200503 | 72 | 312 | 4.0 | 10.0 | 0.00 | 0.00 | 0.00 | 75 | 1011.6 |
| 20260506200020 | 73 | 336 | 2.0 | 10.0 | 0.00 | 0.00 | 0.00 | 77 | 1011.7 |
| 20260506200016 | 73 | 289 | 2.0 | 7.0 | 0.00 | 0.00 | 0.00 | 77 | 1012.2 |
| 20260506195508 | 74 | 13 | 1.0 | 10.0 | 0.00 | 0.00 | 0.00 | 76 | 1012.1 |
| 20260506195506 | 74 | 327 | 3.0 | 10.0 | 0.00 | 0.00 | 0.00 | 76 | 1011.6 |
| 20260506195010 | 74 | 275 | 3.0 | 11.0 | 0.00 | 0.00 | 0.00 | 75 | 1012.1 |
| 20260506195006 | 74 | 325 | 2.0 | 11.0 | 0.00 | 0.00 | 0.00 | 75 | 1011.6 |
| 20260506194520 | 75 | 352 | 2.0 | 11.0 | 0.00 | 0.00 | 0.00 | 74 | 1012.1 |
| 20260506194010 | 77 | 333 | 1.0 | 6.0 | 0.00 | 0.00 | 0.00 | 75 | 1012.0 |
| 20260506193507 | 77 | 15 | 1.0 | 6.0 | 0.00 | 0.00 | 0.00 | 76 | 1011.9 |
| 20260506193504 | 77 | 300 | 2.0 | 6.0 | 0.00 | 0.00 | 0.00 | 76 | 1011.4 |
| 20260506193017 | 77 | 264 | 0.0 | 6.0 | 0.00 | 0.00 | 0.00 | 75 | 1011.9 |
| 20260506192508 | 78 | 330 | 2.0 | 6.0 | 0.00 | 0.00 | 0.00 | 73 | 1011.9 |
| 20260506192011 | 78 | 339 | 2.0 | 7.0 | 0.00 | 0.00 | 0.00 | 74 | 1011.4 |
| 20260506192008 | 78 | 19 | 2.0 | 5.0 | 0.00 | 0.00 | 0.00 | 74 | 1011.9 |
| 20260506191514 | 78 | 68 | 1.0 | 5.0 | 0.00 | 0.00 | 0.00 | 71 | 1012.0 |
| 20260506191512 | 78 | 5 | 2.0 | 7.0 | 0.00 | 0.00 | 0.00 | 71 | 1011.5 |
| 20260506191006 | 78 | 11 | 2.0 | 7.0 | 0.00 | 0.00 | 0.00 | 71 | 1012.1 |
| 20260506191004 | 78 | 326 | 3.0 | 7.0 | 0.00 | 0.00 | 0.00 | 71 | 1011.5 |
| 20260506190504 | 79 | 334 | 2.0 | 6.0 | 0.00 | 0.00 | 0.00 | 72 | 1011.5 |
| 20260506190015 | 77 | 39 | 1.0 | 5.0 | 0.00 | 0.00 | 0.00 | 74 | 1012.3 |
| 20260506190007 | 77 | 333 | 1.0 | 5.0 | 0.00 | 0.00 | 0.00 | 74 | 1011.5 |
| 20260506185506 | 77 | 288 | 0.0 | 6.0 | 0.00 | 0.00 | 0.00 | 73 | 1012.2 |
| 20260506185504 | 77 | 296 | 2.0 | 6.0 | 0.00 | 0.00 | 0.00 | 73 | 1011.5 |
| 20260506185008 | 76 | 265 | 1.0 | 6.0 | 0.00 | 0.00 | 0.00 | 75 | 1011.4 |
| 20260506185004 | 76 | 90 | 1.0 | 6.0 | 0.00 | 0.00 | 0.00 | 75 | 1012.0 |
| 20260506184518 | 74 | 325 | 2.0 | 5.0 | 0.00 | 0.00 | 0.00 | 77 | 1011.4 |
| 20260506184008 | 73 | 333 | 1.0 | 6.0 | 0.00 | 0.00 | 0.00 | 75 | 1011.4 |
| 20260506184004 | 73 | 335 | 2.0 | 5.0 | 0.00 | 0.00 | 0.00 | 75 | 1012.0 |
| 20260506183508 | 74 | 315 | 2.0 | 6.0 | 0.00 | 0.00 | 0.00 | 72 | 1011.4 |
| 20260506183022 | 74 | 65 | 2.0 | 6.0 | 0.00 | 0.00 | 0.00 | 76 | 1011.4 |
| 20260506182510 | 74 | 346 | 2.0 | 6.0 | 0.00 | 0.00 | 0.00 | 76 | 1011.3 |
| 20260506182508 | 74 | 51 | 1.0 | 5.0 | 0.00 | 0.00 | 0.00 | 76 | 1011.8 |
| 20260506182008 | 72 | 10 | 2.0 | 6.0 | 0.00 | 0.00 | 0.00 | 78 | 1011.9 |
| 20260506182006 | 72 | 329 | 2.0 | 9.0 | 0.00 | 0.00 | 0.00 | 78 | 1011.3 |
| 20260506181527 | 72 | 130 | 2.0 | 6.0 | 0.00 | 0.00 | 0.00 | 77 | 1011.9 |
| 20260506181524 | 72 | 327 | 2.0 | 9.0 | 0.00 | 0.00 | 0.00 | 77 | 1011.3 |
| 20260506181010 | 71 | 107 | 2.0 | 6.0 | 0.00 | 0.00 | 0.00 | 77 | 1011.4 |
| 20260506181007 | 71 | 11 | 2.0 | 5.0 | 0.00 | 0.00 | 0.00 | 77 | 1012.0 |
| 20260506180506 | 72 | 265 | 1.0 | 5.0 | 0.00 | 0.00 | 0.00 | 79 | 1011.9 |
| 20260506180503 | 72 | 348 | 3.0 | 6.0 | 0.00 | 0.00 | 0.00 | 79 | 1011.3 |
| 20260506180018 | 71 | 348 | 1.0 | 4.0 | 0.00 | 0.00 | 0.00 | 83 | 1012.1 |
| 20260506180012 | 71 | 286 | 3.0 | 6.0 | 0.00 | 0.00 | 0.00 | 83 | 1011.5 |
| 20260506175508 | 70 | 51 | 2.0 | 8.0 | 0.00 | 0.00 | 0.00 | 78 | 1011.6 |
| 20260506175503 | 70 | 16 | 2.0 | 8.0 | 0.00 | 0.00 | 0.00 | 78 | 1012.2 |
| 20260506175008 | 69 | 68 | 3.0 | 8.0 | 0.00 | 0.00 | 0.00 | 80 | 1011.4 |
| 20260506175004 | 69 | 127 | 3.0 | 8.0 | 0.00 | 0.00 | 0.00 | 80 | 1012.1 |
| 20260506174516 | 68 | 51 | 1.0 | 6.0 | 0.00 | 0.00 | 0.00 | 82 | 1012.1 |
| 20260506174008 | 67 | 127 | 1.0 | 6.0 | 0.00 | 0.00 | 0.00 | 83 | 1012.3 |
| 20260506174006 | 67 | 325 | 2.0 | 9.0 | 0.00 | 0.00 | 0.00 | 83 | 1011.6 |
| 20260506173511 | 67 | 61 | 3.0 | 9.0 | 0.00 | 0.00 | 0.00 | 81 | 1011.9 |
| 20260506173507 | 67 | 140 | 1.0 | 5.0 | 0.00 | 0.00 | 0.00 | 81 | 1012.6 |
| 20260506173014 | 67 | 184 | 0.0 | 6.0 | 0.00 | 0.00 | 0.00 | 85 | 1012.7 |
| 20260506172507 | 65 | 9 | 2.0 | 7.0 | 0.00 | 0.00 | 0.00 | 85 | 1012.0 |
| 20260506172008 | 65 | 315 | 3.0 | 8.0 | 0.00 | 0.00 | 0.00 | 84 | 1012.2 |
| 20260506171535 | 65 | 339 | 0.0 | 11.0 | 0.00 | 0.00 | 0.00 | 86 | 1013.3 |
| 20260506171525 | 65 | 280 | 1.0 | 11.0 | 0.00 | 0.00 | 0.00 | 86 | 1012.4 |
| 20260506171007 | 64 | 336 | 3.0 | 11.0 | 0.00 | 0.00 | 0.00 | 85 | 1013.4 |
| 20260506170509 | 65 | 25 | 2.0 | 17.0 | 0.00 | 0.00 | 0.00 | 86 | 1013.4 |
| 20260506170029 | 64 | 288 | 5.0 | 10.0 | 0.00 | 0.00 | 0.00 | 86 | 1012.6 |
| 20260506170027 | 64 | 59 | 6.0 | 13.0 | 0.00 | 0.00 | 0.00 | 86 | 1013.5 |
| 20260506165510 | 64 | 22 | 2.0 | 10.0 | 0.00 | 0.00 | 0.00 | 87 | 1013.4 |
| 20260506165506 | 64 | 338 | 3.0 | 10.0 | 0.00 | 0.00 | 0.00 | 87 | 1012.4 |
| 20260506165007 | 64 | 331 | 3.0 | 11.0 | 0.00 | 0.00 | 0.00 | 88 | 1013.6 |
| 20260506165003 | 64 | 329 | 3.0 | 11.0 | 0.00 | 0.00 | 0.00 | 88 | 1012.8 |
| 20260506164517 | 64 | 16 | 5.0 | 11.0 | 0.00 | 0.00 | 0.00 | 87 | 1013.8 |
| 20260506164514 | 64 | 343 | 4.0 | 11.0 | 0.00 | 0.00 | 0.00 | 87 | 1012.9 |
| 20260506164008 | 64 | 12 | 3.0 | 10.0 | 0.00 | 0.00 | 0.00 | 87 | 1013.9 |
| 20260506164005 | 64 | 319 | 3.0 | 11.0 | 0.00 | 0.00 | 0.00 | 87 | 1013.0 |
| 20260506163507 | 64 | 343 | 2.0 | 17.0 | 0.00 | 0.00 | 0.00 | 87 | 1013.3 |
| 20260506163020 | 65 | 20 | 4.0 | 16.0 | 0.00 | 0.00 | 0.00 | 87 | 1014.1 |
| 20260506163018 | 65 | 338 | 4.0 | 17.0 | 0.00 | 0.00 | 0.00 | 87 | 1013.3 |
| 20260506162508 | 65 | 9 | 4.0 | 16.0 | 0.00 | 0.00 | 0.00 | 87 | 1014.3 |
| 20260506162012 | 66 | 26 | 5.0 | 14.0 | 0.00 | 0.00 | 0.00 | 86 | 1014.2 |
| 20260506162006 | 66 | 292 | 4.0 | 14.0 | 0.00 | 0.00 | 0.00 | 86 | 1013.4 |
| 20260506161522 | 67 | 5 | 2.0 | 12.0 | 0.00 | 0.00 | 0.00 | 86 | 1014.2 |
| 20260506161013 | 68 | 288 | 3.0 | 13.0 | 0.00 | 0.00 | 0.00 | 85 | 1013.9 |
| 20260506161007 | 68 | 5 | 2.0 | 9.0 | 0.00 | 0.00 | 0.00 | 85 | 1013.2 |
| 20260506160513 | 70 | 341 | 3.0 | 15.0 | 0.00 | 0.00 | 0.00 | 82 | 1012.9 |
| 20260506160508 | 70 | 39 | 6.0 | 15.0 | 0.00 | 0.00 | 0.00 | 82 | 1013.8 |
| 20260506160016 | 73 | 317 | 4.0 | 12.0 | 0.00 | 0.00 | 0.00 | 78 | 1012.7 |
| 20260506160008 | 73 | 322 | 3.0 | 15.0 | 0.00 | 0.00 | 0.00 | 78 | 1013.7 |
| 20260506155509 | 77 | 323 | 1.0 | 3.0 | 0.00 | 0.00 | 0.00 | 86 | 1012.4 |
| 20260506155503 | 77 | 360 | 0.0 | 2.0 | 0.00 | 0.00 | 0.00 | 86 | 1013.4 |
| 20260506155011 | 77 | 339 | 0.0 | 2.0 | 0.00 | 0.00 | 0.00 | 86 | 1012.1 |
| 20260506155003 | 77 | 69 | 0.0 | 2.0 | 0.00 | 0.00 | 0.00 | 86 | 1013.1 |
| 20260506154516 | 77 | 44 | 0.0 | 2.0 | 0.00 | 0.00 | 0.00 | 87 | 1011.9 |
| 20260506154513 | 77 | 63 | 0.0 | 2.0 | 0.00 | 0.00 | 0.00 | 87 | 1012.8 |
| 20260506154008 | 77 | 44 | 0.0 | 2.0 | 0.00 | 0.00 | 0.00 | 86 | 1011.9 |
| 20260506153509 | 77 | 43 | 0.0 | 2.0 | 0.00 | 0.00 | 0.00 | 87 | 1012.7 |
| 20260506153506 | 77 | 327 | 0.0 | 3.0 | 0.00 | 0.00 | 0.00 | 87 | 1011.8 |
| 20260506153016 | 77 | 327 | 1.0 | 3.0 | 0.00 | 0.00 | 0.00 | 86 | 1011.4 |
| 20260506153011 | 77 | 10 | 1.0 | 2.0 | 0.00 | 0.00 | 0.00 | 86 | 1012.2 |
| 20260506152508 | 76 | 12 | 0.0 | 2.0 | 0.00 | 0.00 | 0.00 | 87 | 1012.2 |
| 20260506152506 | 76 | 56 | 0.0 | 2.0 | 0.00 | 0.00 | 0.00 | 87 | 1011.4 |
| 20260506152010 | 76 | 169 | 1.0 | 2.0 | 0.00 | 0.00 | 0.00 | 87 | 1012.3 |
| 20260506152007 | 76 | 352 | 1.0 | 3.0 | 0.00 | 0.00 | 0.00 | 87 | 1011.4 |
| 20260506151523 | 76 | 332 | 0.0 | 3.0 | 0.00 | 0.00 | 0.00 | 88 | 1011.4 |
| 20260506151508 | 76 | 18 | 0.0 | 2.0 | 0.00 | 0.00 | 0.00 | 88 | 1012.3 |
| 20260506151010 | 76 | 5 | 1.0 | 2.0 | 0.00 | 0.00 | 0.00 | 87 | 1012.2 |
| 20260506151005 | 76 | 329 | 1.0 | 2.0 | 0.00 | 0.00 | 0.00 | 87 | 1011.3 |
| 20260506150511 | 76 | 132 | 0.0 | 3.0 | 0.00 | 0.00 | 0.00 | 87 | 1012.0 |
| 20260506150507 | 76 | 44 | 0.0 | 2.0 | 0.00 | 0.00 | 0.00 | 87 | 1011.1 |
| 20260506150031 | 76 | 150 | 0.0 | 3.0 | 0.00 | 0.00 | 0.00 | 87 | 1011.9 |
| 20260506150006 | 76 | 27 | 0.0 | 3.0 | 0.00 | 0.00 | 0.00 | 87 | 1011.1 |
| 20260506145504 | 76 | 97 | 1.0 | 3.0 | 0.00 | 0.00 | 0.00 | 87 | 1011.0 |
| 20260506145005 | 76 | 114 | 1.0 | 3.0 | 0.00 | 0.00 | 0.00 | 87 | 1011.6 |
| 20260506145003 | 76 | 114 | 1.0 | 4.0 | 0.00 | 0.00 | 0.00 | 87 | 1010.8 |
| 20260506144512 | 76 | 108 | 1.0 | 3.0 | 0.00 | 0.00 | 0.00 | 88 | 1011.4 |
| 20260506144502 | 76 | 56 | 2.0 | 4.0 | 0.00 | 0.00 | 0.00 | 88 | 1010.7 |
| 20260506144005 | 76 | 92 | 0.0 | 3.0 | 0.00 | 0.00 | 0.00 | 89 | 1011.3 |
| 20260506144002 | 76 | 88 | 0.0 | 2.0 | 0.00 | 0.00 | 0.00 | 89 | 1010.6 |
| 20260506143506 | 75 | 100 | 1.0 | 2.0 | 0.00 | 0.00 | 0.00 | 90 | 1010.7 |
| 20260506143034 | 75 | 152 | 0.0 | 2.0 | 0.00 | 0.00 | 0.00 | 90 | 1011.5 |
| 20260506143005 | 75 | 151 | 0.0 | 2.0 | 0.00 | 0.00 | 0.00 | 90 | 1010.7 |
| 20260506142509 | 75 | 77 | 0.0 | 2.0 | 0.00 | 0.00 | 0.00 | 90 | 1011.8 |
| 20260506142503 | 75 | 151 | 0.0 | 2.0 | 0.00 | 0.00 | 0.00 | 90 | 1010.9 |
| 20260506142004 | 75 | 77 | 0.0 | 2.0 | 0.00 | 0.00 | 0.00 | 90 | 1011.7 |
| 20260506142002 | 75 | 151 | 0.0 | 2.0 | 0.00 | 0.00 | 0.00 | 90 | 1010.9 |
| 20260506141523 | 75 | 151 | 0.0 | 2.0 | 0.00 | 0.00 | 0.00 | 89 | 1010.9 |
| 20260506141520 | 75 | 77 | 0.0 | 2.0 | 0.00 | 0.00 | 0.00 | 89 | 1011.9 |
| 20260506141008 | 75 | 120 | 0.0 | 2.0 | 0.00 | 0.00 | 0.00 | 89 | 1011.7 |
| 20260506141006 | 75 | 151 | 0.0 | 2.0 | 0.00 | 0.00 | 0.00 | 89 | 1010.8 |
| 20260506140505 | 75 | 132 | 0.0 | 2.0 | 0.00 | 0.00 | 0.00 | 90 | 1011.3 |
| 20260506140014 | 75 | 132 | 0.0 | 2.0 | 0.00 | 0.00 | 0.00 | 90 | 1010.9 |
| 20260506140003 | 75 | 131 | 0.0 | 2.0 | 0.00 | 0.00 | 0.00 | 90 | 1010.2 |
| 20260506135507 | 75 | 92 | 0.0 | 3.0 | 0.00 | 0.00 | 0.00 | 89 | 1010.8 |
| 20260506135503 | 75 | 86 | 0.0 | 3.0 | 0.00 | 0.00 | 0.00 | 89 | 1010.2 |
| 20260506135008 | 75 | 116 | 0.0 | 3.0 | 0.00 | 0.00 | 0.00 | 89 | 1010.7 |
| 20260506135005 | 75 | 86 | 1.0 | 3.0 | 0.00 | 0.00 | 0.00 | 89 | 1010.1 |
| 20260506134508 | 75 | 107 | 1.0 | 2.0 | 0.00 | 0.00 | 0.00 | 89 | 1010.7 |
| 20260506134003 | 75 | 127 | 0.0 | 2.0 | 0.00 | 0.00 | 0.00 | 89 | 1010.8 |
| 20260506133506 | 75 | 121 | 1.0 | 3.0 | 0.00 | 0.00 | 0.00 | 89 | 1010.7 |
| 20260506133503 | 75 | 91 | 0.0 | 3.0 | 0.00 | 0.00 | 0.00 | 89 | 1010.0 |
| 20260506133009 | 75 | 143 | 1.0 | 3.0 | 0.00 | 0.00 | 0.00 | 89 | 1010.7 |
| 20260506133007 | 75 | 91 | 0.0 | 2.0 | 0.00 | 0.00 | 0.00 | 89 | 1010.0 |
| 20260506132511 | 75 | 130 | 0.0 | 2.0 | 0.00 | 0.00 | 0.00 | 90 | 1010.7 |
| 20260506132504 | 75 | 78 | 0.0 | 2.0 | 0.00 | 0.00 | 0.00 | 90 | 1010.0 |
| 20260506132009 | 75 | 74 | 0.0 | 2.0 | 0.00 | 0.00 | 0.00 | 90 | 1010.8 |
| 20260506132006 | 75 | 78 | 0.0 | 2.0 | 0.00 | 0.00 | 0.00 | 90 | 1010.0 |
| 20260506131522 | 75 | 108 | 0.0 | 2.0 | 0.00 | 0.00 | 0.00 | 90 | 1010.8 |
| 20260506131507 | 75 | 78 | 0.0 | 2.0 | 0.00 | 0.00 | 0.00 | 90 | 1010.0 |
| 20260506131004 | 74 | 78 | 0.0 | 2.0 | 0.00 | 0.00 | 0.00 | 90 | 1010.0 |
| 20260506130510 | 74 | 82 | 0.0 | 2.0 | 0.00 | 0.00 | 0.00 | 90 | 1010.8 |
| 20260506130506 | 74 | 59 | 0.0 | 2.0 | 0.00 | 0.00 | 0.00 | 90 | 1009.9 |
| 20260506130025 | 74 | 100 | 0.0 | 2.0 | 0.00 | 0.00 | 0.00 | 91 | 1010.8 |
| 20260506130004 | 74 | 144 | 0.0 | 2.0 | 0.00 | 0.00 | 0.00 | 91 | 1010.0 |
| 20260506125504 | 74 | 161 | 0.0 | 2.0 | 0.00 | 0.00 | 0.00 | 91 | 1009.9 |
| 20260506125006 | 74 | 109 | 0.0 | 2.0 | 0.00 | 0.00 | 0.00 | 91 | 1010.7 |
| 20260506125003 | 74 | 161 | 0.0 | 2.0 | 0.00 | 0.00 | 0.00 | 91 | 1009.9 |
| 20260506124520 | 74 | 140 | 0.0 | 2.0 | 0.00 | 0.00 | 0.00 | 91 | 1010.8 |
| 20260506124507 | 74 | 161 | 0.0 | 2.0 | 0.00 | 0.00 | 0.00 | 91 | 1010.0 |
| 20260506124008 | 74 | 140 | 0.0 | 2.0 | 0.00 | 0.00 | 0.00 | 91 | 1010.8 |
| 20260506124003 | 74 | 161 | 0.0 | 2.0 | 0.00 | 0.00 | 0.00 | 91 | 1010.0 |
| 20260506123505 | 74 | 161 | 0.0 | 2.0 | 0.00 | 0.00 | 0.00 | 91 | 1009.9 |
| 20260506123014 | 74 | 161 | 0.0 | 2.0 | 0.00 | 0.00 | 0.00 | 91 | 1009.9 |
| 20260506123010 | 74 | 140 | 0.0 | 2.0 | 0.00 | 0.00 | 0.00 | 91 | 1010.7 |
| 20260506122504 | 74 | 173 | 0.0 | 2.0 | 0.00 | 0.00 | 0.00 | 92 | 1010.6 |
| 20260506122006 | 74 | 215 | 0.0 | 2.0 | 0.00 | 0.00 | 0.00 | 91 | 1010.5 |
| 20260506122003 | 74 | 147 | 1.0 | 2.0 | 0.00 | 0.00 | 0.00 | 91 | 1009.7 |
| 20260506121520 | 74 | 171 | 0.0 | 2.0 | 0.00 | 0.00 | 0.00 | 92 | 1009.8 |
| 20260506121515 | 74 | 215 | 0.0 | 2.0 | 0.00 | 0.00 | 0.00 | 92 | 1010.5 |
| 20260506121007 | 74 | 171 | 0.0 | 2.0 | 0.00 | 0.00 | 0.00 | 91 | 1009.7 |
| 20260506121005 | 74 | 215 | 0.0 | 0.0 | 0.00 | 0.00 | 0.00 | 91 | 1010.4 |
| 20260506120510 | 73 | 215 | 0.0 | 0.0 | 0.00 | 0.00 | 0.00 | 91 | 1010.4 |
| 20260506120503 | 73 | 171 | 0.0 | 0.0 | 0.00 | 0.00 | 0.00 | 91 | 1009.8 |
| 20260506120022 | 73 | 171 | 0.0 | 0.0 | 0.00 | 0.00 | 0.00 | 91 | 1009.7 |
| 20260506120013 | 73 | 215 | 0.0 | 0.0 | 0.00 | 0.00 | 0.00 | 91 | 1010.4 |
| 20260506115509 | 73 | 171 | 0.0 | 0.0 | 0.00 | 0.00 | 0.00 | 91 | 1009.8 |
| 20260506115506 | 73 | 215 | 0.0 | 0.0 | 0.00 | 0.00 | 0.00 | 91 | 1010.4 |
| 20260506115010 | 73 | 215 | 0.0 | 0.0 | 0.00 | 0.00 | 0.00 | 91 | 1010.4 |
| 20260506115003 | 73 | 171 | 0.0 | 0.0 | 0.00 | 0.00 | 0.00 | 91 | 1009.7 |
| 20260506114512 | 74 | 215 | 0.0 | 0.0 | 0.00 | 0.00 | 0.00 | 91 | 1010.3 |
| 20260506114505 | 74 | 171 | 0.0 | 0.0 | 0.00 | 0.00 | 0.00 | 91 | 1009.7 |
| 20260506114006 | 74 | 215 | 0.0 | 0.0 | 0.00 | 0.00 | 0.00 | 91 | 1010.2 |
| 20260506114004 | 74 | 171 | 0.0 | 2.0 | 0.00 | 0.00 | 0.00 | 91 | 1009.7 |
| 20260506113509 | 74 | 215 | 0.0 | 0.0 | 0.00 | 0.00 | 0.00 | 91 | 1010.3 |
| 20260506113502 | 74 | 171 | 0.0 | 2.0 | 0.00 | 0.00 | 0.00 | 91 | 1009.7 |
| 20260506113024 | 74 | 215 | 0.0 | 0.0 | 0.00 | 0.00 | 0.00 | 91 | 1010.3 |
| 20260506113008 | 74 | 171 | 0.0 | 2.0 | 0.00 | 0.00 | 0.00 | 91 | 1009.8 |
| 20260506112504 | 74 | 171 | 0.0 | 1.0 | 0.00 | 0.00 | 0.00 | 91 | 1009.7 |
| 20260506112502 | 74 | 215 | 0.0 | 0.0 | 0.00 | 0.00 | 0.00 | 91 | 1010.3 |
| 20260506112007 | 74 | 171 | 0.0 | 2.0 | 0.00 | 0.00 | 0.00 | 90 | 1009.6 |
| 20260506112004 | 74 | 215 | 0.0 | 2.0 | 0.00 | 0.00 | 0.00 | 90 | 1010.3 |
| 20260506111515 | 74 | 215 | 0.0 | 2.0 | 0.00 | 0.00 | 0.00 | 90 | 1010.2 |
| 20260506111006 | 74 | 215 | 0.0 | 2.0 | 0.00 | 0.00 | 0.00 | 89 | 1010.2 |
| 20260506111004 | 74 | 171 | 0.0 | 3.0 | 0.00 | 0.00 | 0.00 | 89 | 1009.6 |
| 20260506110506 | 74 | 209 | 0.0 | 2.0 | 0.00 | 0.00 | 0.00 | 90 | 1010.2 |
| 20260506110504 | 74 | 159 | 1.0 | 3.0 | 0.00 | 0.00 | 0.00 | 90 | 1009.5 |
| 20260506110022 | 74 | 209 | 0.0 | 2.0 | 0.00 | 0.00 | 0.00 | 89 | 1010.2 |
| 20260506110020 | 74 | 170 | 1.0 | 3.0 | 0.00 | 0.00 | 0.00 | 89 | 1009.6 |
| 20260506105508 | 74 | 209 | 0.0 | 2.0 | 0.00 | 0.00 | 0.00 | 89 | 1010.1 |
| 20260506105504 | 74 | 168 | 0.0 | 3.0 | 0.00 | 0.00 | 0.00 | 89 | 1009.4 |
| 20260506105008 | 74 | 209 | 0.0 | 2.0 | 0.00 | 0.00 | 0.00 | 89 | 1010.0 |
| 20260506105003 | 74 | 168 | 0.0 | 3.0 | 0.00 | 0.00 | 0.00 | 89 | 1009.4 |
| 20260506104519 | 74 | 202 | 0.0 | 5.0 | 0.00 | 0.00 | 0.00 | 89 | 1009.4 |
| 20260506104010 | 74 | 172 | 1.0 | 5.0 | 0.00 | 0.00 | 0.00 | 89 | 1009.2 |
| 20260506104007 | 74 | 209 | 0.0 | 2.0 | 0.00 | 0.00 | 0.00 | 89 | 1009.9 |
| 20260506103508 | 74 | 208 | 0.0 | 2.0 | 0.00 | 0.00 | 0.00 | 89 | 1009.9 |
| 20260506103503 | 74 | 192 | 1.0 | 4.0 | 0.00 | 0.00 | 0.00 | 89 | 1009.2 |
| 20260506103018 | 74 | 207 | 0.0 | 2.0 | 0.00 | 0.00 | 0.00 | 89 | 1009.9 |
| 20260506103008 | 74 | 180 | 2.0 | 6.0 | 0.00 | 0.00 | 0.00 | 89 | 1009.3 |
| 20260506102510 | 74 | 159 | 0.0 | 2.0 | 0.00 | 0.00 | 0.00 | 89 | 1009.9 |
| 20260506102503 | 74 | 209 | 2.0 | 5.0 | 0.00 | 0.00 | 0.00 | 89 | 1009.2 |
| 20260506102011 | 74 | 248 | 0.0 | 2.0 | 0.00 | 0.00 | 0.00 | 89 | 1009.8 |
| 20260506102004 | 74 | 202 | 2.0 | 5.0 | 0.00 | 0.00 | 0.00 | 89 | 1009.1 |
| 20260506101518 | 74 | 166 | 0.0 | 2.0 | 0.00 | 0.00 | 0.00 | 89 | 1009.8 |
| 20260506101512 | 74 | 138 | 3.0 | 4.0 | 0.00 | 0.00 | 0.00 | 89 | 1009.2 |
| 20260506101006 | 74 | 207 | 0.0 | 2.0 | 0.00 | 0.00 | 0.00 | 89 | 1009.8 |
| 20260506100508 | 74 | 196 | 2.0 | 5.0 | 0.00 | 0.00 | 0.00 | 89 | 1009.0 |
| 20260506100504 | 74 | 226 | 0.0 | 2.0 | 0.00 | 0.00 | 0.00 | 89 | 1009.7 |
| 20260506100017 | 74 | 182 | 0.0 | 2.0 | 0.00 | 0.00 | 0.00 | 89 | 1009.5 |
| 20260506100012 | 74 | 165 | 3.0 | 5.0 | 0.00 | 0.00 | 0.00 | 89 | 1008.9 |
| 20260506095506 | 74 | 242 | 0.0 | 2.0 | 0.00 | 0.00 | 0.00 | 89 | 1009.5 |
| 20260506095008 | 74 | 215 | 0.0 | 3.0 | 0.00 | 0.00 | 0.00 | 89 | 1009.5 |
| 20260506095006 | 74 | 210 | 2.0 | 8.0 | 0.00 | 0.00 | 0.00 | 89 | 1008.8 |
| 20260506094521 | 74 | 161 | 0.0 | 3.0 | 0.00 | 0.00 | 0.00 | 88 | 1009.4 |
| 20260506094507 | 74 | 153 | 3.0 | 8.0 | 0.00 | 0.00 | 0.00 | 88 | 1008.8 |
| 20260506094005 | 75 | 224 | 1.0 | 4.0 | 0.00 | 0.00 | 0.00 | 88 | 1009.3 |
| 20260506093507 | 74 | 163 | 0.0 | 4.0 | 0.00 | 0.00 | 0.00 | 89 | 1009.3 |
| 20260506093505 | 74 | 143 | 3.0 | 8.0 | 0.00 | 0.00 | 0.00 | 89 | 1008.6 |
| 20260506093033 | 74 | 157 | 2.0 | 6.0 | 0.00 | 0.00 | 0.00 | 89 | 1008.5 |
| 20260506093023 | 74 | 236 | 0.0 | 3.0 | 0.00 | 0.00 | 0.00 | 89 | 1009.1 |
| 20260506092508 | 74 | 246 | 1.0 | 3.0 | 0.00 | 0.00 | 0.00 | 89 | 1009.0 |
| 20260506092503 | 74 | 234 | 4.0 | 7.0 | 0.00 | 0.00 | 0.00 | 89 | 1008.4 |
| 20260506092007 | 74 | 198 | 1.0 | 4.0 | 0.00 | 0.00 | 0.00 | 89 | 1009.0 |
| 20260506092004 | 74 | 167 | 5.0 | 9.0 | 0.00 | 0.00 | 0.00 | 89 | 1008.4 |
| 20260506091525 | 74 | 209 | 0.0 | 4.0 | 0.00 | 0.00 | 0.00 | 89 | 1009.1 |
| 20260506091512 | 74 | 184 | 5.0 | 10.0 | 0.00 | 0.00 | 0.00 | 89 | 1008.5 |
| 20260506091010 | 74 | 222 | 0.0 | 2.0 | 0.00 | 0.00 | 0.00 | 89 | 1009.0 |
| 20260506091003 | 74 | 163 | 4.0 | 10.0 | 0.00 | 0.00 | 0.00 | 89 | 1008.3 |